| time (UTC) | temp C | wind direction | speed KPH | gust KPH | rain 1hr cm | rain 24hr cm | rain mn cm | humidity % | barometer mb |
| 20260507070018 | 7 | 89 | 0.0 | 1.6 | 0.00 | 0.00 | 0.00 | 91 | 1017.7 |
| 20260507064556 | 7 | 89 | 0.0 | 1.6 | 0.00 | 0.00 | 0.00 | 90 | 1018.0 |
| 20260507063038 | 8 | 89 | 0.0 | 1.6 | 0.00 | 0.00 | 0.00 | 90 | 1017.9 |
| 20260507061514 | 8 | 89 | 0.0 | 1.6 | 0.00 | 0.00 | 0.00 | 89 | 1018.0 |
| 20260507060059 | 8 | 90 | 0.0 | 1.6 | 0.00 | 0.00 | 0.00 | 89 | 1017.9 |
| 20260507054513 | 8 | 90 | 0.0 | 1.6 | 0.00 | 0.00 | 0.00 | 89 | 1017.7 |
| 20260507053053 | 8 | 89 | 0.0 | 1.6 | 0.00 | 0.00 | 0.00 | 89 | 1017.7 |
| 20260507051534 | 8 | 90 | 0.0 | 1.6 | 0.00 | 0.00 | 0.00 | 88 | 1017.9 |
| 20260507050109 | 8 | 90 | 0.0 | 0.0 | 0.00 | 0.00 | 0.00 | 87 | 1017.7 |
| 20260507044523 | 9 | 90 | 0.0 | 1.6 | 0.00 | 0.00 | 0.00 | 86 | 1017.5 |
| 20260507043059 | 9 | 90 | 0.0 | 0.0 | 0.00 | 0.00 | 0.00 | 85 | 1017.5 |
| 20260507043002 | 9 | 90 | 0.0 | 0.0 | 0.00 | 0.00 | 0.00 | 85 | 1017.5 |
| 20260507041545 | 9 | 90 | 0.0 | 0.0 | 0.00 | 0.00 | 0.00 | 84 | 1017.5 |
| 20260507040002 | 10 | 90 | 0.0 | 0.0 | 0.00 | 0.00 | 0.00 | 83 | 1017.4 |
| 20260507034541 | 10 | 90 | 0.0 | 1.6 | 0.00 | 0.00 | 0.00 | 82 | 1017.4 |
| 20260507033027 | 10 | 90 | 0.0 | 0.0 | 0.00 | 0.00 | 0.00 | 81 | 1017.3 |
| 20260507031602 | 10 | 90 | 0.0 | 1.6 | 0.00 | 0.00 | 0.00 | 81 | 1017.1 |
| 20260507024610 | 11 | 90 | 0.0 | 0.0 | 0.00 | 0.00 | 0.00 | 79 | 1016.6 |
| 20260507024507 | 11 | 90 | 0.0 | 0.0 | 0.00 | 0.00 | 0.00 | 79 | 1016.6 |
| 20260507023044 | 11 | 90 | 0.0 | 0.0 | 0.00 | 0.00 | 0.00 | 80 | 1016.5 |
| 20260507021526 | 11 | 90 | 0.0 | 0.0 | 0.00 | 0.00 | 0.00 | 77 | 1016.4 |
| 20260507020107 | 12 | 90 | 0.0 | 1.6 | 0.00 | 0.00 | 0.00 | 76 | 1016.3 |
| 20260507014541 | 12 | 90 | 0.0 | 0.0 | 0.00 | 0.00 | 0.00 | 72 | 1016.0 |
| 20260507013018 | 13 | 90 | 0.0 | 1.6 | 0.00 | 0.00 | 0.00 | 69 | 1015.7 |
| 20260507011557 | 14 | 90 | 0.0 | 1.6 | 0.00 | 0.00 | 0.00 | 66 | 1015.6 |
| 20260507010043 | 15 | 105 | 0.0 | 4.8 | 0.00 | 0.00 | 0.00 | 63 | 1015.4 |
| 20260507004549 | 15 | 137 | 0.0 | 4.8 | 0.00 | 0.00 | 0.00 | 60 | 1015.3 |
| 20260507003029 | 16 | 87 | 0.0 | 8.0 | 0.00 | 0.00 | 0.00 | 58 | 1015.5 |
| 20260507001514 | 16 | 126 | 0.0 | 8.0 | 0.00 | 0.00 | 0.00 | 57 | 1015.5 |
| 20260507000051 | 16 | 62 | 3.2 | 8.0 | 0.00 | 0.00 | 0.00 | 55 | 1015.4 |
| 20260506234515 | 16 | 20 | 1.6 | 9.7 | 0.00 | 0.00 | 0.00 | 55 | 1015.2 |
| 20260506233055 | 16 | 170 | 3.2 | 11.3 | 0.00 | 0.00 | 0.00 | 55 | 1015.2 |
| 20260506231535 | 16 | 183 | 3.2 | 11.3 | 0.00 | 0.00 | 0.00 | 53 | 1015.4 |
| 20260506230110 | 16 | 23 | 1.6 | 11.3 | 0.00 | 0.00 | 0.00 | 54 | 1015.2 |
| 20260506224534 | 16 | 359 | 3.2 | 9.7 | 0.00 | 0.00 | 0.00 | 53 | 1015.2 |
| 20260506223017 | 17 | 138 | 1.6 | 6.4 | 0.00 | 0.00 | 0.00 | 52 | 1015.0 |
| 20260506221552 | 17 | 351 | 3.2 | 9.7 | 0.00 | 0.00 | 0.00 | 52 | 1014.7 |
| 20260506220013 | 17 | 42 | 1.6 | 9.7 | 0.00 | 0.00 | 0.00 | 56 | 1014.5 |
| 20260506214548 | 16 | 7 | 1.6 | 9.7 | 0.00 | 0.00 | 0.00 | 58 | 1014.5 |
| 20260506213038 | 17 | 71 | 1.6 | 12.9 | 0.00 | 0.00 | 0.00 | 58 | 1013.8 |
| 20260506211519 | 17 | 94 | 3.2 | 12.9 | 0.00 | 0.00 | 0.00 | 57 | 1013.5 |
| 20260506210054 | 17 | 66 | 3.2 | 11.3 | 0.00 | 0.00 | 0.00 | 58 | 1013.8 |
| 20260506204511 | 17 | 159 | 1.6 | 11.3 | 0.00 | 0.00 | 0.00 | 58 | 1013.5 |
| 20260506203052 | 17 | 149 | 0.0 | 8.0 | 0.00 | 0.00 | 0.00 | 58 | 1014.1 |
| 20260506201540 | 17 | 319 | 1.6 | 11.3 | 0.00 | 0.00 | 0.00 | 56 | 1014.2 |
| 20260506200001 | 16 | 206 | 0.0 | 6.4 | 0.00 | 0.00 | 0.00 | 62 | 1014.5 |
| 20260506194534 | 16 | 123 | 1.6 | 8.0 | 0.00 | 0.00 | 0.00 | 58 | 1015.2 |
| 20260506193021 | 16 | 205 | 1.6 | 11.3 | 0.00 | 0.00 | 0.00 | 58 | 1015.6 |
| 20260506191556 | 16 | 96 | 3.2 | 9.7 | 0.00 | 0.00 | 0.00 | 57 | 1015.6 |
| 20260506190041 | 16 | 123 | 0.0 | 11.3 | 0.00 | 0.00 | 0.00 | 60 | 1015.7 |
| 20260506184553 | 15 | 132 | 0.0 | 9.7 | 0.00 | 0.00 | 0.00 | 61 | 1016.3 |
| 20260506183036 | 15 | 42 | 1.6 | 14.5 | 0.00 | 0.00 | 0.00 | 60 | 1016.4 |
| 20260506181524 | 15 | 285 | 3.2 | 11.3 | 0.00 | 0.00 | 0.00 | 60 | 1016.5 |
| 20260506174521 | 14 | 57 | 3.2 | 8.0 | 0.00 | 0.00 | 0.00 | 63 | 1016.4 |
| 20260506173129 | 13 | 27 | 3.2 | 12.9 | 0.00 | 0.00 | 0.00 | 63 | 1016.4 |
| 20260506171542 | 13 | 139 | 1.6 | 11.3 | 0.00 | 0.00 | 0.00 | 63 | 1016.6 |
| 20260506170119 | 12 | 74 | 0.0 | 9.7 | 0.00 | 0.00 | 0.00 | 65 | 1016.7 |
| 20260506164548 | 12 | 87 | 1.6 | 8.0 | 0.00 | 0.00 | 0.00 | 64 | 1016.9 |
| 20260506163027 | 12 | 152 | 1.6 | 9.7 | 0.00 | 0.00 | 0.00 | 65 | 1017.5 |
| 20260506161503 | 12 | 122 | 3.2 | 22.5 | 0.00 | 0.00 | 0.00 | 64 | 1017.0 |
| 20260506160021 | 12 | 157 | 4.8 | 11.3 | 0.00 | 0.00 | 0.00 | 64 | 1016.9 |
| 20260506154552 | 12 | 26 | 1.6 | 12.9 | 0.00 | 0.00 | 0.00 | 66 | 1016.6 |
| 20260506153031 | 12 | 138 | 3.2 | 14.5 | 0.00 | 0.00 | 0.00 | 65 | 1016.2 |
| 20260506151511 | 11 | 136 | 6.4 | 17.7 | 0.00 | 0.00 | 0.00 | 67 | 1015.6 |
| 20260506150050 | 11 | 206 | 6.4 | 17.7 | 0.00 | 0.00 | 0.00 | 66 | 1016.3 |
| 20260506144512 | 11 | 101 | 4.8 | 14.5 | 0.00 | 0.00 | 0.00 | 66 | 1016.0 |
| 20260506143050 | 11 | 116 | 1.6 | 20.9 | 0.00 | 0.00 | 0.00 | 66 | 1015.3 |
| 20260506141532 | 11 | 111 | 4.8 | 14.5 | 0.00 | 0.00 | 0.00 | 66 | 1015.3 |
| 20260506140113 | 11 | 86 | 6.4 | 14.5 | 0.00 | 0.00 | 0.00 | 65 | 1015.5 |
| 20260506134539 | 11 | 76 | 1.6 | 14.5 | 0.00 | 0.00 | 0.00 | 65 | 1015.3 |
| 20260506133020 | 11 | 85 | 3.2 | 14.5 | 0.00 | 0.00 | 0.00 | 67 | 1014.9 |
| 20260506131603 | 11 | 17 | 1.6 | 8.0 | 0.00 | 0.00 | 0.00 | 67 | 1014.9 |
| 20260506131505 | 11 | 195 | 1.6 | 8.0 | 0.00 | 0.00 | 0.00 | 67 | 1014.9 |
| 20260506130058 | 11 | 142 | 1.6 | 6.4 | 0.00 | 0.00 | 0.00 | 66 | 1015.2 |
| 20260506124601 | 11 | 360 | 0.0 | 6.4 | 0.00 | 0.00 | 0.00 | 66 | 1015.0 |
| 20260506123042 | 11 | 178 | 0.0 | 8.0 | 0.00 | 0.00 | 0.00 | 66 | 1015.2 |
| 20260506121518 | 11 | 113 | 1.6 | 6.4 | 0.00 | 0.00 | 0.00 | 68 | 1014.3 |
| 20260506120106 | 11 | 112 | 3.2 | 9.7 | 0.00 | 0.00 | 0.00 | 69 | 1013.7 |
| 20260506114518 | 11 | 87 | 1.6 | 12.9 | 0.00 | 0.00 | 0.00 | 70 | 1013.8 |
| 20260506113055 | 11 | 162 | 0.0 | 4.8 | 0.00 | 0.00 | 0.00 | 72 | 1013.2 |
| 20260506111530 | 11 | 114 | 1.6 | 4.8 | 0.00 | 0.00 | 0.00 | 74 | 1013.4 |
| 20260506110106 | 11 | 111 | 0.0 | 6.4 | 0.00 | 0.00 | 0.00 | 75 | 1013.0 |
| 20260506104531 | 10 | 351 | 1.6 | 8.0 | 0.00 | 0.00 | 0.00 | 76 | 1012.6 |
| 20260506103009 | 10 | 152 | 0.0 | 12.9 | 0.00 | 0.00 | 0.00 | 77 | 1012.1 |
| 20260506101559 | 10 | 39 | 0.0 | 8.0 | 0.00 | 0.00 | 0.00 | 77 | 1011.6 |
| 20260506100014 | 10 | 121 | 1.6 | 12.9 | 0.00 | 0.00 | 0.00 | 77 | 1011.3 |
| 20260506094554 | 10 | 149 | 0.0 | 8.0 | 0.00 | 0.00 | 0.00 | 78 | 1011.3 |
| 20260506093044 | 10 | 109 | 4.8 | 11.3 | 0.00 | 0.00 | 0.00 | 78 | 1011.2 |
| 20260506091515 | 10 | 151 | 0.0 | 8.0 | 0.00 | 0.00 | 0.00 | 79 | 1010.9 |
| 20260506090051 | 10 | 74 | 0.0 | 12.9 | 0.00 | 0.00 | 0.00 | 80 | 1010.6 |
| 20260506084512 | 10 | 94 | 1.6 | 9.7 | 0.00 | 0.00 | 0.00 | 80 | 1010.3 |
| 20260506083051 | 10 | 113 | 1.6 | 4.8 | 0.00 | 0.00 | 0.00 | 81 | 1010.5 |
| 20260506081535 | 10 | 144 | 1.6 | 9.7 | 0.00 | 0.00 | 0.00 | 81 | 1010.5 |
| 20260506080106 | 10 | 41 | 1.6 | 8.0 | 0.00 | 0.00 | 0.00 | 81 | 1010.2 |
| 20260506073009 | 11 | 357 | 0.0 | 6.4 | 0.00 | 0.00 | 0.00 | 81 | 1010.3 |
| 20260506071544 | 11 | 355 | 0.0 | 4.8 | 0.00 | 0.00 | 0.00 | 81 | 1009.9 |